TimeCDT,TemperatureF,Dew PointF,Humidity,Sea Level PressureIn,VisibilityMPH,Wind Direction,Wind SpeedMPH,Gust SpeedMPH,PrecipitationIn,Events,Conditions,WindDirDegrees,DateUTC
12:53 AM,57.9,46.9,67,29.93,10.0,Calm,Calm,-,N/A,,Clear,0,2012-10-19 05:53:00
1:53 AM,54.0,50.0,86,29.93,10.0,Calm,Calm,-,N/A,,Clear,0,2012-10-19 06:53:00
2:53 AM,52.0,50.0,93,29.92,10.0,Calm,Calm,-,N/A,,Clear,0,2012-10-19 07:53:00
3:53 AM,51.1,48.9,92,29.92,10.0,Calm,Calm,-,N/A,,Clear,0,2012-10-19 08:53:00
4:53 AM,51.1,48.9,92,29.92,10.0,Calm,Calm,-,N/A,,Clear,0,2012-10-19 09:53:00
5:53 AM,51.1,48.0,89,29.94,10.0,Calm,Calm,-,N/A,,Clear,0,2012-10-19 10:53:00
6:53 AM,48.0,46.9,96,29.95,10.0,Calm,Calm,-,N/A,,Clear,0,2012-10-19 11:53:00
7:53 AM,52.0,48.9,89,29.95,10.0,Calm,Calm,-,N/A,,Clear,0,2012-10-19 12:53:00
8:53 AM,61.0,51.1,70,29.97,10.0,Calm,Calm,-,N/A,,Clear,0,2012-10-19 13:53:00
9:53 AM,69.1,48.0,47,29.98,10.0,West,5.8,-,N/A,,Clear,270,2012-10-19 14:53:00
10:53 AM,73.0,44.1,35,29.98,10.0,West,8.1,-,N/A,,Clear,260,2012-10-19 15:53:00
11:53 AM,75.9,35.1,23,29.97,10.0,WNW,8.1,-,N/A,,Clear,300,2012-10-19 16:53:00
12:53 PM,77.0,33.1,20,29.95,10.0,NW,10.4,16.1,N/A,,Clear,310,2012-10-19 17:53:00
1:53 PM,78.1,33.1,19,29.92,10.0,WNW,9.2,20.7,N/A,,Clear,290,2012-10-19 18:53:00
2:53 PM,79.0,35.1,20,29.90,10.0,West,12.7,-,N/A,,Clear,270,2012-10-19 19:53:00
3:53 PM,78.1,35.1,21,29.88,10.0,WNW,8.1,-,N/A,,Clear,290,2012-10-19 20:53:00
4:53 PM,77.0,37.9,24,29.88,10.0,West,8.1,-,N/A,,Clear,280,2012-10-19 21:53:00
5:53 PM,73.9,37.0,26,29.88,10.0,WNW,5.8,-,N/A,,Clear,290,2012-10-19 22:53:00
6:53 PM,66.9,42.1,40,29.89,10.0,WSW,3.5,-,N/A,,Clear,250,2012-10-19 23:53:00
7:53 PM,64.0,44.1,48,29.90,10.0,West,3.5,-,N/A,,Clear,270,2012-10-20 00:53:00
8:53 PM,59.0,48.9,69,29.91,10.0,Calm,Calm,-,N/A,,Clear,0,2012-10-20 01:53:00
9:53 PM,55.9,50.0,80,29.92,10.0,Calm,Calm,-,N/A,,Clear,0,2012-10-20 02:53:00
10:53 PM,54.0,50.0,86,29.93,10.0,Calm,Calm,-,N/A,,Clear,0,2012-10-20 03:53:00
11:53 PM,53.1,48.9,86,29.93,10.0,Calm,Calm,-,N/A,,Clear,0,2012-10-20 04:53:00